Location: Coors Field
(39.7564°N, 104.9943°W)
Time: 18:14:07
(UTC-06:00)

ISS - Visible Passes

Search period start: 16 October 2017 00:00
Search period end: 26 October 2017 00:00
Orbit: 401 x 408 km, 51.6° (Epoch: 17 October)

Date Brightness Start Highest point End Pass type
(mag) Time Alt. Az. Time Alt. Az. Time Alt. Az.
16 Oct -3.2 18:51:57 10° WNW 18:55:11 58° SW 18:58:24 10° SE visible
17 Oct -0.7 19:37:47 10° WSW 19:39:00 12° SW 19:40:13 10° SSW visible
18 Oct -1.2 18:44:18 10° W 18:46:56 22° SW 18:49:33 10° S visible
